SAUDISAT 5A

Last updated on Mon Jun 22 2026 00:02:52 GMT+0000 (Coordinated Universal Time)

1 43831U 18102A 26172.55228376 .00004160 00000+0 15433-3 0 9996 2 43831 97.3063 234.0493 0011211 115.7884 244.4513 15.28085390416346
UTC large
Height (km)
Speed (km/s)
/
Latitude / Longitude
Inclination (degrees)
Orbital Period (minutes)
Azimuth
Elevation
Range (km)
Doppler Factor

Next 0 passes for location: London (51.5072 / 0.1276)

No passes found over London.
SAUDISAT 5A